Regional Weather Roundup
Issued by NWS Nashville, TN

Home | Current Version | Previous Version | Text Only | Print | Product List | Glossary On
Versions: 1 2 3 4 5 6 7 8 9 10 11 12 13 14 15 16 17 18 19 20 21 22 23 24 25 26 27 28
000
ASUS44 KOHX 281710
RWROHX
MIDDLE TENNESSEE HOURLY WEATHER ROUNDUP
NATIONAL WEATHER SERVICE NASHVILLE TN
1200 PM CDT FRI APR 28 2017

NOTE: "FAIR" INDICATES FEW OR NO CLOUDS BELOW 12,000 FEET WITH
NO SIGNIFICANT WEATHER AND/OR OBSTRUCTIONS TO VISIBILITY.

* THESE REPORTS ARE NOT UNDER NWS QUALITY CONTROL AND MAY NOT
  REPORT WEATHER SUCH AS PRECIPITATION AND FOG.


TNZ005>011-023>034-057-059-062>066-078-080-281800
...NORTHERN MIDDLE TENNESSEE...

CITY           SKY/WX    TMP DP  RH WIND       PRES   REMARKS
CLARKSVILLE    MOSUNNY   77  62  59 S12       29.89F
CROSSVILLE     PTSUNNY   71  61  70 S12G20    30.03S
GALLATIN       PTSUNNY   77  64  65 S9G16     29.96F
DICKSON          N/A     71  65  81 S14       29.91S
NASHVILLE      PTSUNNY   78  64  61 SW16G22   29.94S
PORTLAND       MOSUNNY   75  64  69 S13G25    29.92F
SMYRNA         PTSUNNY   79  66  64 S10       29.94F
SPARTA         MOSUNNY   79  63  57 S16G23    29.96F
SPRINGFIELD    MOSUNNY   75  66  73 S14G22    29.90F
WEST NASHVILLE PTSUNNY   73  64  73 S16       29.92F
$$
TNZ056-058-060-061-075>077-079-093>097-281800
...SOUTHERN MIDDLE TENNESSEE...

CITY           SKY/WX    TMP DP  RH WIND       PRES   REMARKS
COLUMBIA       CLOUDY    73  73 100 S7        29.91F
FAYETTEVILLE     N/A    N/A N/A N/A MISG        N/A
MCMINNVILLE    PTSUNNY   79  64  61 S8        29.98S
MURFREESBORO   MOSUNNY   78  64  61 S10       29.94S
SHELBYVILLE    CLOUDY    75  68  78 S14       29.97S
TULLAHOMA      CLOUDY    73  64  73 S8        29.98S
WINCHESTER     CLOUDY    73  64  73 S10       29.99R
$$


...KEY TO REMARKS...
VSB - VISIBILITY IN MILES
WCI - WIND CHILL INDEX
HX  - HEAT INDEX





USA.gov is the U.S. government's official web portal to all federal, state and local government web resources and services.